Location: Unspecified
(0.0000°N, 0.0000°E)
Time: 16:08:52
(UTC+01:00)

Cosmos 1125 Rocket - Visible Passes

Search period start: 01 March 2015 00:00
Search period end: 11 March 2015 00:00
Orbit: 759 x 780 km, 74.0° (Epoch: 28 February)

Date Brightness Start Highest point End Pass type
(mag) Time Alt. Az. Time Alt. Az. Time Alt. Az.
01 Mar 4.6 05:43:44 10° N 05:48:37 44° ENE 05:53:35 10° SSE visible
02 Mar 5.8 05:08:16 10° NNE 05:12:04 22° ENE 05:16:06 10° SE visible
03 Mar 6.5 04:35:17 10° ENE 04:35:27 10° ENE 04:36:06 10° E visible
03 Mar 3.8 06:12:37 10° NNW 06:17:31 42° WSW 06:22:25 10° S visible
04 Mar 3.4 05:37:56 25° NNW 05:41:02 88° WSW 05:46:16 10° SSE visible
05 Mar 4.4 05:03:59 43° ENE 05:04:32 45° ENE 05:09:31 10° SSE visible
06 Mar 5.9 04:29:48 19° ESE 04:29:48 19° ESE 04:32:04 10° SE visible
06 Mar 4.7 06:10:13 21° WSW 06:10:13 21° WSW 06:13:44 10° SSW visible
07 Mar 4.8 05:35:50 26° SSW 05:35:50 26° SSW 05:38:19 10° S visible
08 Mar 5.7 05:01:15 15° S 05:01:15 15° S 05:02:10 10° S visible
